ECHOSTAR 21

Last updated on Tue Sep 22 2026 00:03:14 GMT+0000 (Coordinated Universal Time)

1 42749U 17032A 26264.34858338 .00000064 00000+0 00000+0 0 9999 2 42749 1.7836 1.7997 0002511 185.0614 309.1544 1.00274701 34061
UTC large
Height (km)
Speed (km/s)
/
Latitude / Longitude
Inclination (degrees)
Orbital Period (minutes)
Azimuth
Elevation
Range (km)
Doppler Factor

Next 0 passes for location: London (51.5072 / 0.1276)

No passes found over London.
ECHOSTAR 21